Temp
54 54 53 52 52 53 52 51 50 48 47 46 46 45 44 42 42 40 38 38 36 35 36 36 35 34 33 32 32 31 31 29 27 30 31 32 31 31 34 34 35 34 35
54 54 53 53 53 51 50 48 48 46 46 45 45 44 42 40 40 39 38 38 36 35 34 34 33 37 31 31 30 29 29 29 28 28 29 29 29 31 32 31 36 39 36
54 53 52 51 49 47 46 45 45 44 44 44 43 42 41 38 37 36 35 34 34 33 32 32 31 31 30 29 30 29 30 33 29 28 29 29 29 30 31 33 32 33 37
52 51 49 48 47 45 44 45 45 44 43 41 41 41 40 38 38 36 35 33 33 32 32 31 31 31 31 30 32 29 32 29 29 28 29 32 35 32 29 29 31 34 34
49 48 45 45 45 45 45 43 43 42 41 41 41 40 39 39 39 34 33 31 31 30 30 31 32 37 39 38 35 31 30 29 29 32 33 31 30 31 30 32 32 32 35
46 43 43 42 43 43 42 41 41 40 40 40 39 39 38 41 43 42 35 31 31 31 30 29 31 35 34 39 40 41 39 31 33 31 30 28 30 28 29 29 29 28 27
42 42 41 42 41 41 41 41 40 38 38 36 36 37 36 38 44 43 40 32 31 30 31 30 32 34 33 30 35 37 35 38 38 30 26 30 27 28 28 28 28 29 27
39 39 40 40 40 40 39 38 37 36 34 32 32 32 33 38 44 42 39 31 30 30 31 29 28 29 31 35 36 31 29 30 31 33 33 29 29 31 30 30 28 26 28
38 39 40 40 39 38 37 36 34 33 31 30 30 30 30 31 44 41 35 30 31 29 31 29 30 29 36 41 34 29 28 29 35 37 37 37 37 37 35 29 24 24 23
38 38 39 40 38 36 35 34 32 31 31 31 31 30 36 29 42 42 34 31 29 29 29 31 36 35 40 40 35 29 25 29 29 28 29 30 31 29 34 29 25 23 23
37 36 36 36 35 34 31 31 29 29 29 27 29 27 27 30 31 41 40 32 31 30 30 30 30 37 38 38 37 29 31 34 29 27 26 26 26 26 27 27 27 26 24
35 35 34 33 36 33 30 28 28 28 26 25 25 26 28 27 37 38 39 39 38 30 29 30 30 36 36 35 33 36 36 32 27 24 26 26 26 27 28 29 28 27 27
34 33 32 31 31 30 30 28 28 27 27 27 28 26 27 30 29 36 38 38 37 32 30 33 35 34 34 31 33 33 31 25 23 26 25 27 28 29 30 29 28 28 27
34 34 34 32 31 30 31 31 29 27 27 29 29 27 25 28 28 29 30 29 33 32 32 28 31 31 31 30 29 28 27 26 28 24 25 26 27 26 25 26 24 25 22
34 32 32 32 29 29 30 30 31 28 29 28 27 28 26 26 30 36 35 33 32 34 29 26 24 24 23 24 25 25 26 26 24 26 25 25 25 24 24 25 23 22 17
33 32 31 31 29 29 30 29 38 36 39 38 36 32 31 35 37 37 37 36 35 35 25 22 22 22 21 22 22 24 24 24 24 24 23 22 21 21 22 23 21 15 18
33 32 31 31 30 29 29 29 27 33 38 37 37 37 36 36 36 36 36 35 34 31 22 21 20 20 20 21 20 21 21 23 23 19 17 18 19 19 20 19 18 17 16
31 36 31 29 29 28 28 28 27 25 23 26 33 34 35 36 35 35 35 31 25 26 22 20 19 20 20 20 21 21 22 21 20 18 18 21 15 17 19 19 19 18 20
32 30 29 28 28 29 28 27 27 26 25 25 26 30 32 34 34 33 33 24 21 20 24 20 19 18 19 21 21 21 20 20 23 20 14 22 16 18 19 16 16 25 25
31 34 31 29 29 28 27 26 26 25 22 23 23 24 26 27 24 24 25 23 24 25 26 24 20 20 21 21 20 20 19 19 18 16 18 16 19 15 18 19 20 19 18
29 31 33 28 28 27 26 25 26 22 21 21 23 28 32 28 23 23 24 26 25 25 24 25 21 19 20 20 19 19 19 19 19 19 18 19 21 16 18 22 22 22 21
29 29 28 27 27 27 26 25 24 23 23 21 23 27 33 29 27 27 26 27 27 27 27 26 22 18 22 20 19 19 20 18 19 18 19 22 22 19 21 22 22 21 20
28 27 28 27 27 30 27 25 23 22 22 22 22 23 24 22 27 26 26 26 26 26 27 26 20 18 19 18 20 21 20 21 22 24 23 24 22 20 20 20 21 21 20
26 26 26 26 25 23 23 22 21 26 22 22 25 26 22 24 27 26 26 25 25 25 26 23 19 19 20 18 21 22 23 23 24 24 24 26 19 20 19 19 21 20 19
25 24 25 23 23 23 23 22 23 27 28 28 28 27 27 27 26 25 24 23 24 24 25 20 17 19 20 23 25 22 24 29 30 30 26 19 16 18 20 20 21 19 19
23 23 22 22 21 22 22 22 23 24 24 27 27 26 24 21 23 24 24 23 23 24 22 15 17 17 20 21 20 24 30 33 32 33 20 15 17 19 21 22 21 20 19
MSLP
1010.73 1011.71 1012.69 1013.97 1014.79 1015.33 1016.19 1018.34 1019.03 1019.54 1019.73 1020.16 1020.85 1021.64 1021.84 1022.56 1023.18 1023.75 1023.93 1024.52 1025.46 1026.09 1025.96 1026.02 1026.21 1026.27 1026.71 1026.81 1026.94 1026.85 1026.84 1026.86 1026.84 1026.09 1025.69 1025.20 1024.86 1024.36 1023.80 1023.32 1022.87 1022.37 1021.73
1010.77 1011.72 1013.02 1013.82 1014.79 1016.12 1017.29 1017.73 1018.87 1019.75 1019.97 1020.81 1021.95 1022.63 1022.15 1022.58 1023.98 1024.29 1024.53 1024.80 1025.78 1026.26 1026.27 1026.54 1026.51 1026.52 1026.82 1026.90 1026.88 1026.86 1026.68 1026.67 1026.74 1026.33 1025.65 1025.09 1024.57 1023.96 1023.58 1023.21 1022.44 1021.90 1021.36
1011.17 1011.97 1013.20 1014.17 1015.09 1016.14 1017.37 1017.66 1019.04 1019.70 1020.19 1021.11 1022.46 1022.60 1021.77 1023.17 1024.32 1024.71 1024.90 1025.61 1026.09 1026.25 1026.51 1026.85 1026.81 1026.69 1026.99 1026.95 1026.77 1026.69 1026.73 1026.61 1026.42 1026.13 1025.27 1024.77 1024.36 1023.93 1023.31 1022.57 1022.15 1021.52 1020.98
1011.53 1012.49 1013.49 1014.41 1015.36 1016.01 1016.95 1018.60 1019.41 1020.25 1021.09 1021.73 1022.39 1022.44 1023.27 1023.86 1024.29 1024.94 1025.52 1025.90 1026.28 1026.75 1026.80 1027.03 1026.80 1026.86 1026.69 1026.61 1026.55 1026.78 1026.59 1026.39 1025.93 1025.65 1025.15 1024.58 1024.08 1023.55 1023.14 1022.67 1021.89 1021.53 1020.75
1011.89 1012.89 1014.23 1015.14 1016.03 1016.70 1018.00 1019.38 1019.82 1020.68 1021.28 1022.11 1022.80 1023.13 1023.65 1023.88 1024.74 1025.38 1025.56 1025.99 1026.59 1027.08 1026.78 1027.06 1026.94 1026.45 1026.29 1026.43 1026.55 1026.24 1026.11 1025.86 1025.69 1025.41 1024.96 1024.63 1024.07 1023.46 1023.21 1022.85 1022.05 1021.17 1020.46
1011.49 1013.51 1014.65 1015.71 1016.56 1017.44 1018.37 1019.11 1019.84 1021.10 1021.79 1022.32 1023.32 1023.52 1023.80 1024.30 1024.69 1025.48 1025.59 1026.21 1026.85 1026.81 1026.93 1027.03 1026.83 1026.63 1026.89 1026.57 1026.30 1025.68 1025.56 1025.66 1025.51 1025.33 1025.06 1024.61 1024.07 1024.04 1023.43 1022.87 1022.06 1021.19 1020.09
1013.55 1014.61 1015.49 1016.48 1017.39 1018.48 1019.30 1020.03 1020.80 1021.80 1022.40 1022.92 1023.84 1024.15 1024.25 1024.49 1025.05 1025.25 1025.57 1026.54 1026.68 1026.76 1026.93 1026.85 1026.89 1026.93 1027.03 1026.79 1026.04 1025.73 1025.94 1025.57 1025.24 1025.03 1024.86 1024.56 1024.27 1023.81 1023.12 1022.53 1022.12 1021.58 1020.97
1015.10 1015.98 1016.92 1017.58 1018.45 1019.30 1019.96 1020.80 1021.83 1022.75 1023.26 1023.86 1024.57 1024.60 1024.79 1024.70 1024.99 1025.38 1025.64 1026.40 1026.55 1026.69 1026.83 1027.05 1027.17 1027.13 1026.75 1025.80 1025.72 1025.76 1025.90 1025.62 1025.18 1024.80 1024.54 1024.37 1023.94 1023.24 1022.98 1022.47 1022.05 1021.64 1020.99
1016.49 1017.41 1018.09 1018.51 1019.23 1019.96 1021.17 1021.88 1022.85 1023.24 1023.85 1024.36 1024.97 1025.23 1025.29 1025.26 1024.82 1025.22 1025.83 1026.48 1026.51 1026.69 1026.93 1027.09 1026.93 1026.68 1026.05 1025.32 1025.46 1025.62 1025.53 1025.20 1024.87 1024.53 1024.24 1023.80 1023.32 1022.93 1022.55 1022.38 1022.10 1021.72 1020.97
1017.45 1018.15 1018.50 1019.23 1019.78 1021.04 1021.74 1022.54 1023.26 1023.65 1024.27 1025.00 1025.64 1025.54 1025.49 1025.47 1025.25 1025.31 1026.14 1026.16 1026.57 1026.88 1026.85 1026.89 1026.60 1026.27 1025.62 1025.32 1025.19 1025.32 1025.26 1024.98 1024.84 1024.57 1024.21 1023.77 1023.45 1023.13 1022.53 1022.56 1022.40 1021.94 1021.37
1018.04 1018.81 1019.67 1020.05 1020.51 1021.36 1022.19 1022.86 1023.62 1024.44 1024.95 1025.40 1025.73 1026.00 1025.84 1026.05 1026.04 1025.40 1025.54 1026.16 1026.36 1026.70 1026.89 1026.92 1026.88 1026.21 1025.78 1025.47 1025.19 1025.30 1024.98 1024.52 1024.74 1024.61 1024.26 1023.88 1023.49 1023.15 1022.73 1022.44 1022.16 1021.94 1021.35
1018.81 1019.59 1020.30 1020.65 1021.44 1022.00 1022.68 1023.82 1024.40 1024.73 1025.32 1025.72 1025.93 1026.23 1026.46 1026.65 1025.89 1025.82 1025.85 1026.03 1026.23 1026.63 1026.88 1026.89 1026.71 1026.09 1025.91 1025.67 1025.60 1025.02 1024.76 1025.05 1025.00 1024.70 1024.35 1023.95 1023.47 1022.99 1022.49 1021.96 1021.53 1021.17 1020.84
1019.70 1020.46 1021.09 1021.47 1022.11 1022.80 1023.43 1024.11 1024.61 1024.98 1025.29 1025.87 1026.22 1026.44 1026.44 1026.40 1026.53 1026.30 1026.27 1026.27 1026.48 1026.60 1026.88 1026.61 1026.37 1026.17 1026.05 1026.05 1025.60 1025.36 1025.33 1025.33 1025.10 1024.81 1024.49 1023.93 1023.44 1022.82 1022.09 1021.52 1021.07 1020.62 1020.05
1020.24 1020.92 1021.47 1021.99 1022.82 1023.31 1023.79 1024.25 1024.57 1025.03 1025.46 1025.66 1025.83 1026.13 1026.44 1026.67 1026.68 1026.63 1026.67 1026.87 1026.68 1026.61 1026.66 1026.94 1026.54 1026.44 1026.30 1026.15 1025.96 1025.80 1025.56 1025.33 1025.03 1024.89 1024.42 1023.92 1023.35 1022.67 1022.07 1021.62 1021.13 1020.53 1020.02
1020.35 1021.15 1021.78 1022.27 1023.02 1023.72 1024.04 1024.23 1024.48 1024.75 1024.85 1025.34 1025.77 1026.12 1026.46 1026.50 1026.28 1025.99 1026.12 1026.26 1026.29 1026.19 1026.69 1026.87 1026.86 1026.81 1026.69 1026.40 1026.10 1025.82 1025.53 1025.26 1025.07 1024.82 1024.42 1023.94 1023.37 1022.77 1022.07 1021.56 1021.18 1020.82 1020.57
1020.70 1021.49 1022.16 1022.86 1023.48 1023.86 1024.17 1024.40 1024.30 1024.57 1024.68 1025.03 1025.51 1025.90 1026.17 1026.02 1026.00 1026.01 1025.97 1026.00 1026.20 1026.11 1026.79 1027.20 1027.25 1027.24 1027.07 1026.63 1026.32 1025.98 1025.59 1025.25 1025.07 1024.79 1024.44 1024.10 1023.61 1023.01 1022.30 1021.59 1021.36 1021.11 1020.67
1020.82 1021.62 1022.32 1022.97 1023.53 1023.98 1024.38 1024.55 1024.71 1024.80 1024.97 1025.30 1025.49 1025.68 1025.83 1025.98 1026.00 1025.94 1025.99 1026.09 1026.35 1026.54 1027.11 1027.37 1027.47 1027.37 1027.11 1026.71 1026.43 1026.14 1025.82 1025.38 1025.13 1024.81 1024.53 1024.14 1023.64 1023.04 1022.42 1021.87 1021.45 1021.02 1020.43
1021.09 1021.58 1022.31 1022.98 1023.50 1023.96 1024.28 1024.58 1024.86 1025.22 1025.64 1025.81 1025.80 1025.78 1025.81 1025.86 1025.92 1025.95 1026.06 1026.39 1026.72 1026.82 1027.14 1027.38 1027.42 1027.23 1026.94 1026.61 1026.29 1026.04 1025.72 1025.34 1025.05 1024.65 1024.30 1023.85 1023.35 1023.09 1022.47 1022.00 1021.55 1021.08 1020.42
1021.12 1021.78 1022.33 1022.88 1023.35 1023.75 1024.21 1024.69 1025.09 1025.47 1025.73 1025.87 1025.99 1025.95 1025.96 1025.88 1025.93 1026.08 1026.14 1026.56 1026.90 1027.01 1026.93 1027.07 1026.97 1026.79 1026.58 1026.35 1026.10 1025.86 1025.66 1025.32 1024.87 1024.53 1024.11 1023.52 1023.02 1022.80 1022.38 1021.88 1021.43 1020.91 1020.39
1021.18 1021.63 1022.25 1022.82 1023.32 1023.87 1024.36 1024.84 1025.28 1025.58 1025.85 1026.05 1026.11 1026.13 1025.98 1026.03 1026.25 1026.41 1026.51 1026.59 1026.61 1026.56 1026.50 1026.55 1026.55 1026.40 1026.31 1026.09 1025.89 1025.63 1025.31 1025.00 1024.72 1024.27 1023.75 1023.24 1022.77 1022.55 1022.27 1021.69 1021.14 1020.72 1020.35
1021.35 1021.83 1022.29 1022.97 1023.46 1023.91 1024.36 1024.82 1025.25 1025.60 1025.86 1026.00 1026.02 1025.90 1025.82 1025.92 1026.32 1026.49 1026.44 1026.28 1026.26 1026.18 1026.17 1026.17 1026.10 1026.03 1025.92 1025.71 1025.58 1025.31 1024.98 1024.73 1024.43 1023.94 1023.41 1022.87 1022.40 1022.22 1021.80 1021.25 1020.78 1020.41 1020.10
1021.45 1022.02 1022.61 1023.14 1023.59 1024.02 1024.39 1024.73 1025.21 1025.51 1025.77 1025.91 1025.97 1025.86 1025.71 1025.74 1025.94 1026.04 1026.08 1026.01 1025.91 1025.81 1025.77 1025.73 1025.81 1025.81 1025.55 1025.38 1025.26 1024.93 1024.59 1024.34 1023.89 1023.39 1022.94 1022.37 1021.96 1021.71 1021.35 1020.97 1020.56 1020.20 1019.86
1021.42 1022.11 1022.62 1023.08 1023.48 1023.74 1024.16 1024.62 1025.04 1025.33 1025.58 1025.76 1025.82 1025.87 1025.82 1025.79 1025.70 1025.71 1025.70 1025.64 1025.55 1025.50 1025.42 1025.37 1025.54 1025.48 1025.20 1025.09 1024.85 1024.52 1024.22 1023.81 1023.33 1022.84 1022.41 1021.89 1021.59 1021.38 1021.06 1020.82 1020.43 1020.11 1019.81
1021.38 1022.03 1022.57 1023.05 1023.48 1023.84 1024.12 1024.53 1024.93 1024.95 1025.27 1025.44 1025.49 1025.53 1025.53 1025.45 1025.34 1025.31 1025.27 1025.23 1025.26 1025.23 1025.13 1025.19 1025.29 1025.06 1024.81 1024.65 1024.29 1023.92 1023.58 1023.16 1022.77 1022.26 1021.72 1021.27 1021.25 1021.10 1020.87 1020.62 1020.28 1020.02 1019.79
1021.45 1022.07 1022.53 1022.93 1023.29 1023.65 1023.99 1024.26 1024.50 1024.55 1024.70 1024.81 1024.85 1024.90 1024.93 1024.95 1024.95 1024.93 1024.94 1024.92 1024.91 1024.91 1024.80 1024.94 1024.96 1024.64 1024.41 1023.99 1023.57 1023.33 1022.96 1022.33 1021.72 1021.23 1020.91 1021.07 1021.14 1020.86 1020.65 1020.39 1020.05 1019.85 1019.67
1021.65 1022.07 1022.51 1022.86 1023.29 1023.52 1023.79 1023.98 1024.05 1024.08 1024.16 1024.11 1024.16 1024.21 1024.25 1024.30 1024.33 1024.38 1024.44 1024.49 1024.49 1024.45 1024.51 1024.78 1024.57 1024.27 1023.99 1023.59 1023.24 1022.81 1022.13 1021.53 1021.12 1020.65 1020.79 1020.97 1020.89 1020.61 1020.37 1020.04 1019.79 1019.67 1019.54
Wind_Speed
15 14 14 10 11 13 15 8 8 7 8 9 9 7 8 7 7 6 7 7 8 5 5 6 5 4 3 3 2 2 1 2 3 3 2 4 4 6 7 6 7 7 7
16 17 14 14 13 12 11 10 8 7 8 8 6 6 8 8 6 6 7 7 7 5 5 5 5 4 5 4 3 3 2 2 2 8 3 3 4 5 6 7 7 6 7
15 16 14 13 13 12 9 11 9 9 8 8 7 8 10 8 7 6 7 7 6 6 5 5 4 5 4 3 3 4 3 3 3 4 7 2 3 3 5 7 5 6 6
14 13 12 11 10 12 13 10 10 9 10 8 6 8 9 7 8 7 7 6 6 5 5 4 5 4 4 5 4 5 4 4 3 3 5 7 7 5 3 6 10 8 7
14 14 13 13 12 13 13 11 11 9 9 9 9 8 8 8 5 6 6 7 6 5 6 4 4 6 11 9 4 4 4 3 4 6 9 8 8 9 9 7 12 6 7
14 14 14 13 12 11 11 11 12 10 10 10 7 8 8 6 13 12 9 6 5 5 5 4 5 6 7 12 11 12 9 5 7 5 6 9 7 8 8 8 8 9 8
14 13 14 13 13 11 10 11 11 9 8 9 7 7 7 7 12 12 13 5 5 5 4 4 4 3 7 6 7 6 7 11 12 5 5 5 9 9 7 8 9 9 9
13 12 11 12 12 11 11 11 9 7 8 7 6 6 6 4 11 11 11 5 5 5 5 4 3 5 6 8 4 4 5 5 5 5 5 6 6 6 5 7 7 6 7
11 11 10 12 12 12 11 10 7 9 6 5 5 6 7 3 10 11 8 4 4 5 3 4 4 5 11 14 4 4 5 6 7 11 14 16 16 16 13 4 5 8 9
8 8 9 10 12 11 10 9 4 6 8 5 5 5 10 6 8 6 6 3 4 2 3 4 9 9 13 15 7 3 5 7 4 5 7 9 10 9 14 4 4 7 7
9 9 8 8 11 10 7 6 6 7 7 6 7 5 6 5 4 7 6 2 1 1 3 3 3 12 15 14 13 4 7 7 8 6 6 6 5 5 4 5 4 5 7
9 10 9 9 8 7 10 5 6 7 7 5 6 5 3 2 6 5 6 6 7 3 3 2 4 14 13 12 9 13 13 10 4 5 6 6 7 8 8 8 7 6 6
10 9 8 8 8 6 8 7 5 5 5 4 4 4 3 3 3 3 2 5 7 3 2 6 12 12 12 8 11 11 9 3 3 6 7 6 6 7 8 7 7 8 8
11 10 8 9 8 6 5 4 5 4 4 3 3 3 2 1 1 1 1 2 4 3 3 4 7 8 8 7 6 5 4 3 5 4 6 7 6 6 6 5 6 7 5
9 8 7 6 6 6 4 4 4 2 4 4 3 3 2 1 2 1 2 1 1 5 2 2 2 2 4 4 4 4 3 4 4 5 6 7 7 6 6 5 4 5 2
9 6 5 6 4 4 5 4 6 7 7 7 8 4 2 2 2 3 5 6 7 8 3 2 3 3 4 4 4 5 4 6 4 5 5 5 6 6 7 6 4 2 5
9 7 6 7 5 5 4 5 5 5 8 5 4 3 3 1 2 4 6 5 6 4 1 1 2 3 4 4 4 4 5 5 6 4 3 5 5 5 8 6 6 4 4
7 13 6 5 5 4 4 4 4 3 2 1 2 1 1 1 3 4 5 4 2 3 1 1 2 3 3 4 4 4 5 5 5 4 4 6 4 3 6 6 6 5 5
7 5 5 5 4 5 4 4 4 4 3 2 0 1 1 2 2 4 4 1 1 2 2 2 3 3 3 4 4 4 5 5 6 4 4 6 4 4 6 4 5 12 11
6 12 9 5 4 4 4 4 4 3 2 3 2 2 1 1 1 1 1 2 3 3 2 3 3 2 3 4 4 4 4 5 5 4 5 4 4 2 5 6 5 5 4
5 5 10 4 4 4 4 4 4 3 3 2 3 3 7 4 3 3 3 3 2 2 2 3 2 2 3 4 4 4 4 5 6 6 5 5 5 3 4 5 5 5 5
5 5 4 4 4 4 4 3 3 3 3 2 2 2 5 2 3 3 2 2 3 3 3 3 2 3 4 4 4 4 5 6 6 5 6 6 5 4 5 4 5 5 5
5 5 5 4 4 6 4 4 3 3 3 2 2 1 1 2 3 3 3 2 2 3 3 3 2 3 3 4 4 5 5 6 7 6 7 7 4 3 3 4 5 5 4
5 5 5 4 4 3 3 3 2 4 3 2 3 3 2 3 3 4 3 2 2 3 4 2 2 5 5 5 5 5 5 6 6 7 10 6 3 5 3 4 4 4 4
4 4 4 4 4 4 4 4 4 4 4 4 4 4 4 3 3 3 3 3 3 3 4 2 3 5 7 9 10 8 9 16 12 9 3 1 3 4 4 4 4 2 2
4 4 3 3 3 3 4 4 4 4 4 5 5 4 4 4 4 3 3 3 3 4 2 3 4 7 9 8 8 11 14 14 12 14 1 1 2 3 3 4 4 2 3
Wind_Direction
145 144 138 141 135 124 122 143 141 138 136 133 131 130 114 117 107 102 93 95 91 78 56 62 58 49 27 22 23 15 326 170 253 292 264 274 278 286 292 286 288 282 282
149 140 146 139 135 136 141 131 122 117 103 106 117 121 114 97 93 96 98 88 95 79 64 56 41 35 29 14 6 347 326 309 247 293 265 272 262 286 280 291 290 300 302
148 145 145 142 138 124 119 111 127 125 118 113 141 135 96 103 109 92 90 99 94 78 68 64 53 47 28 1 357 360 328 298 271 269 302 276 274 289 293 302 299 297 296
136 139 130 125 121 113 113 117 116 120 122 107 96 100 103 105 101 100 98 88 80 83 81 71 57 61 32 7 352 317 289 288 288 298 310 311 317 297 276 317 321 313 321
128 120 114 111 116 114 120 122 110 102 98 105 111 99 105 100 106 107 102 96 97 90 65 49 31 36 18 353 322 294 313 337 322 319 319 320 320 334 321 330 318 318 312
113 113 112 109 107 105 110 107 103 107 106 103 104 114 106 105 115 117 107 98 94 80 57 31 22 22 343 332 331 342 346 334 324 312 314 319 331 325 312 315 311 319 319
98 104 109 113 111 110 105 108 104 98 109 98 96 104 101 116 124 109 102 98 83 67 53 35 12 352 325 289 315 351 321 326 331 314 303 323 314 304 303 319 318 318 318
85 92 107 111 109 105 103 103 106 113 110 109 108 105 98 108 128 112 100 90 70 57 39 11 320 302 311 325 344 344 306 300 325 313 318 297 278 303 317 311 318 304 298
106 115 115 121 117 113 117 113 119 112 99 96 105 108 106 71 105 103 90 83 64 36 19 334 312 329 320 331 349 317 312 311 318 321 321 321 324 326 322 345 329 325 318
105 106 108 116 116 119 123 120 93 95 101 103 103 96 93 59 75 92 108 74 47 16 320 330 345 334 327 336 340 358 325 309 309 316 321 320 318 311 331 335 310 316 317
103 99 103 108 109 112 104 101 102 109 103 91 92 82 77 75 33 68 63 78 47 360 317 325 321 331 338 337 339 342 301 339 345 325 314 308 311 310 315 314 295 287 299
103 104 106 104 114 104 105 103 109 113 110 107 96 81 77 58 55 42 38 14 354 359 345 318 317 336 342 343 339 325 336 351 324 323 329 334 335 331 326 321 292 280 262
108 106 101 94 97 104 118 117 107 108 107 120 127 126 83 48 26 360 4 4 355 2 322 342 343 346 346 345 335 345 354 333 319 339 331 323 319 310 308 308 310 300 290
119 117 114 114 111 101 101 117 118 116 130 128 106 90 64 16 316 317 272 305 328 333 6 348 346 353 353 346 344 341 328 314 330 314 315 314 306 309 315 315 312 323 312
115 118 113 105 112 112 98 124 124 128 133 129 125 132 150 214 258 316 355 302 357 338 69 10 350 343 332 330 337 331 325 323 329 330 325 323 315 316 317 317 303 319 276
124 121 128 125 119 118 119 102 120 139 130 115 137 153 204 198 13 0 352 17 3 354 42 356 337 321 318 322 329 328 321 329 320 321 314 311 314 315 316 327 314 273 302
136 135 130 133 137 138 135 135 122 87 105 104 132 121 101 110 358 355 2 25 358 19 48 324 295 297 301 311 306 308 307 311 309 296 292 305 306 311 327 318 319 308 309
122 145 138 142 144 146 148 144 137 143 154 182 36 92 179 2 345 25 354 38 8 357 256 257 277 284 289 300 301 308 307 310 304 294 303 314 292 290 319 321 323 307 309
137 139 142 139 141 147 134 132 139 149 161 156 62 324 313 344 33 12 5 140 227 266 267 254 258 270 277 291 295 298 291 300 302 309 286 294 302 317 313 294 300 330 340
137 152 147 140 141 133 136 144 155 164 153 185 201 217 242 59 96 313 268 240 246 250 289 285 265 265 283 287 290 287 293 300 298 291 285 280 282 287 298 300 298 303 303
135 143 152 131 138 146 152 164 171 164 176 192 223 236 240 194 184 219 247 242 254 270 270 287 266 268 286 288 281 283 287 289 288 284 286 291 290 282 282 290 297 299 301
132 133 128 144 146 156 170 162 167 174 187 188 224 255 282 161 202 208 230 277 275 286 280 283 273 251 284 282 275 276 285 284 284 281 285 286 284 280 287 294 309 308 303
137 143 147 151 158 177 168 174 172 177 185 187 202 235 259 236 224 215 225 257 264 271 278 274 251 277 266 260 270 271 273 278 281 284 287 290 284 282 281 299 305 308 311
136 148 153 158 156 159 164 169 169 194 188 200 219 220 236 243 239 239 235 218 259 263 268 253 256 280 291 286 279 270 271 276 275 273 274 280 275 308 300 293 291 301 308
141 146 154 166 175 165 172 173 179 191 204 220 236 220 225 229 239 234 223 219 240 261 265 265 267 284 286 284 296 283 285 296 291 293 273 238 268 289 289 286 291 295 297
142 151 159 153 167 167 177 192 204 202 210 223 226 223 217 216 220 216 222 226 234 254 262 270 277 293 296 294 287 291 300 304 307 318 132 244 285 301 286 283 303 289 286